Location: Kuffner-Sternwarte
(48.2130°N, 16.2960°E)
Time: 16:32:59
(UTC+02:00)

COROT - Pass Details

Date: 11 May 2026
Orbit: 594 x 855 km, 90.1° (Epoch: 21 May)

Event Time Altitude Azimuth Distance (km) Brightness Sun altitude
Rises 00:01:57 0° 1° (N) 3,393 10.7 -23.1°
Reaches altitude 10° 00:04:24 10° 1° (N) 2,429 9.6 -23.1°
Maximum altitude 00:09:52 86° 275° (W) 795 6.0 -23.3°
Enters shadow 00:10:52 60° 191° (S) 893 6.0 -23.4°
